| time (UTC) | temp F | wind direction | speed MPH | gust MPH | rain 1hr in | rain 24hr in | rain mn in | humidity % | barometer mb |
| 20260505230527 | 42 | 360 | 7.0 | 17.0 | 0.00 | 0.00 | 0.00 | 61 | 1014.2 |
| 20260505230050 | 42 | 360 | 8.0 | 17.0 | 0.00 | 0.00 | 0.00 | 58 | 1014.1 |
| 20260505225528 | 41 | 360 | 10.0 | 17.0 | 0.00 | 0.00 | 0.00 | 60 | 1014.1 |
| 20260505225030 | 40 | 96 | 9.0 | 17.0 | 0.00 | 0.00 | 0.00 | 56 | 1014.0 |
| 20260505224540 | 39 | 92 | 4.0 | 19.0 | 0.00 | 0.00 | 0.00 | 60 | 1014.0 |
| 20260505224027 | 39 | 112 | 10.0 | 19.0 | 0.00 | 0.00 | 0.00 | 58 | 1014.0 |
| 20260505223530 | 40 | 85 | 13.0 | 19.0 | 0.00 | 0.00 | 0.00 | 59 | 1014.0 |
| 20260505223037 | 41 | 33 | 9.0 | 21.0 | 0.00 | 0.00 | 0.00 | 61 | 1014.0 |
| 20260505222527 | 41 | 87 | 10.0 | 21.0 | 0.00 | 0.00 | 0.00 | 57 | 1013.9 |
| 20260505222028 | 42 | 85 | 12.0 | 20.0 | 0.00 | 0.00 | 0.00 | 53 | 1014.0 |
| 20260505221539 | 43 | 109 | 10.0 | 20.0 | 0.00 | 0.00 | 0.00 | 55 | 1013.9 |
| 20260505221034 | 43 | 65 | 9.0 | 20.0 | 0.00 | 0.00 | 0.00 | 62 | 1013.8 |
| 20260505220528 | 42 | 92 | 9.0 | 24.0 | 0.00 | 0.00 | 0.00 | 59 | 1014.1 |
| 20260505220044 | 41 | 74 | 8.0 | 24.0 | 0.00 | 0.00 | 0.00 | 62 | 1014.1 |
| 20260505215529 | 41 | 117 | 7.0 | 19.0 | 0.00 | 0.00 | 0.00 | 55 | 1014.2 |
| 20260505215028 | 41 | 82 | 9.0 | 19.0 | 0.00 | 0.00 | 0.00 | 53 | 1014.2 |
| 20260505214543 | 41 | 46 | 12.0 | 22.0 | 0.00 | 0.00 | 0.00 | 51 | 1014.0 |
| 20260505214028 | 42 | 107 | 10.0 | 22.0 | 0.00 | 0.00 | 0.00 | 51 | 1014.0 |
| 20260505213527 | 42 | 75 | 13.0 | 20.0 | 0.00 | 0.00 | 0.00 | 49 | 1014.0 |
| 20260505213050 | 42 | 108 | 12.0 | 20.0 | 0.00 | 0.00 | 0.00 | 49 | 1014.0 |
| 20260505212526 | 41 | 117 | 8.0 | 19.0 | 0.00 | 0.00 | 0.00 | 52 | 1014.0 |
| 20260505212028 | 41 | 112 | 12.0 | 21.0 | 0.00 | 0.00 | 0.00 | 51 | 1014.0 |
| 20260505211537 | 41 | 95 | 14.0 | 21.0 | 0.00 | 0.00 | 0.00 | 52 | 1014.0 |
| 20260505211028 | 42 | 77 | 14.0 | 21.0 | 0.00 | 0.00 | 0.00 | 52 | 1013.9 |
| 20260505210527 | 43 | 115 | 11.0 | 20.0 | 0.00 | 0.00 | 0.00 | 49 | 1013.8 |
| 20260505210038 | 44 | 99 | 11.0 | 17.0 | 0.00 | 0.00 | 0.00 | 48 | 1013.9 |
| 20260505205528 | 44 | 119 | 7.0 | 15.0 | 0.00 | 0.00 | 0.00 | 50 | 1013.9 |
| 20260505205028 | 45 | 91 | 7.0 | 20.0 | 0.00 | 0.00 | 0.00 | 52 | 1013.9 |
| 20260505204543 | 45 | 78 | 11.0 | 21.0 | 0.00 | 0.00 | 0.00 | 53 | 1014.0 |
| 20260505204028 | 44 | 53 | 13.0 | 24.0 | 0.00 | 0.00 | 0.00 | 53 | 1014.0 |
| 20260505203528 | 44 | 88 | 15.0 | 24.0 | 0.00 | 0.00 | 0.00 | 52 | 1013.9 |
| 20260505203041 | 44 | 126 | 13.0 | 24.0 | 0.00 | 0.00 | 0.00 | 48 | 1013.8 |
| 20260505202525 | 43 | 101 | 10.0 | 24.0 | 0.00 | 0.00 | 0.00 | 48 | 1013.8 |
| 20260505202028 | 44 | 105 | 15.0 | 24.0 | 0.00 | 0.00 | 0.00 | 48 | 1013.9 |
| 20260505201546 | 45 | 64 | 14.0 | 25.0 | 0.00 | 0.00 | 0.00 | 46 | 1013.7 |
| 20260505201031 | 45 | 77 | 13.0 | 25.0 | 0.00 | 0.00 | 0.00 | 46 | 1013.8 |
| 20260505200528 | 46 | 110 | 13.0 | 23.0 | 0.00 | 0.00 | 0.00 | 49 | 1013.8 |
| 20260505200040 | 46 | 97 | 13.0 | 23.0 | 0.00 | 0.00 | 0.00 | 48 | 1013.8 |
| 20260505195531 | 45 | 110 | 10.0 | 21.0 | 0.00 | 0.00 | 0.00 | 48 | 1013.8 |
| 20260505195027 | 45 | 104 | 12.0 | 21.0 | 0.00 | 0.00 | 0.00 | 49 | 1013.8 |
| 20260505194540 | 45 | 105 | 12.0 | 23.0 | 0.00 | 0.00 | 0.00 | 49 | 1013.7 |
| 20260505194028 | 46 | 120 | 12.0 | 23.0 | 0.00 | 0.00 | 0.00 | 50 | 1013.7 |
| 20260505193527 | 46 | 114 | 13.0 | 24.0 | 0.00 | 0.00 | 0.00 | 47 | 1013.7 |
| 20260505193038 | 46 | 99 | 11.0 | 27.0 | 0.00 | 0.00 | 0.00 | 53 | 1013.6 |
| 20260505192530 | 45 | 100 | 14.0 | 27.0 | 0.00 | 0.00 | 0.00 | 46 | 1013.5 |
| 20260505192028 | 46 | 122 | 17.0 | 27.0 | 0.00 | 0.00 | 0.00 | 46 | 1013.5 |
| 20260505191541 | 46 | 101 | 13.0 | 25.0 | 0.00 | 0.00 | 0.00 | 46 | 1013.6 |
| 20260505191031 | 46 | 104 | 13.0 | 23.0 | 0.00 | 0.00 | 0.00 | 47 | 1013.6 |
| 20260505190527 | 46 | 111 | 8.0 | 19.0 | 0.00 | 0.00 | 0.00 | 47 | 1013.7 |
| 20260505190045 | 46 | 122 | 11.0 | 20.0 | 0.00 | 0.00 | 0.00 | 46 | 1013.8 |
| 20260505185528 | 45 | 39 | 11.0 | 20.0 | 0.00 | 0.00 | 0.00 | 47 | 1013.7 |
| 20260505185101 | 45 | 110 | 10.0 | 20.0 | 0.00 | 0.00 | 0.00 | 48 | 1013.7 |
| 20260505184540 | 44 | 110 | 13.0 | 20.0 | 0.00 | 0.00 | 0.00 | 46 | 1013.8 |
| 20260505184027 | 45 | 67 | 10.0 | 20.0 | 0.00 | 0.00 | 0.00 | 49 | 1014.0 |
| 20260505183526 | 44 | 95 | 11.0 | 20.0 | 0.00 | 0.00 | 0.00 | 45 | 1014.0 |
| 20260505183040 | 44 | 97 | 9.0 | 21.0 | 0.00 | 0.00 | 0.00 | 46 | 1014.1 |
| 20260505182530 | 44 | 94 | 12.0 | 26.0 | 0.00 | 0.00 | 0.00 | 48 | 1014.1 |
| 20260505182026 | 44 | 43 | 10.0 | 27.0 | 0.00 | 0.00 | 0.00 | 48 | 1014.0 |
| 20260505181538 | 44 | 111 | 10.0 | 27.0 | 0.00 | 0.00 | 0.00 | 47 | 1014.2 |
| 20260505181027 | 43 | 98 | 15.0 | 27.0 | 0.00 | 0.00 | 0.00 | 46 | 1014.1 |
| 20260505180527 | 44 | 88 | 11.0 | 20.0 | 0.00 | 0.00 | 0.00 | 48 | 1014.2 |
| 20260505180046 | 44 | 94 | 9.0 | 24.0 | 0.00 | 0.00 | 0.00 | 48 | 1014.3 |
| 20260505175529 | 44 | 89 | 15.0 | 24.0 | 0.00 | 0.00 | 0.00 | 46 | 1014.5 |
| 20260505175028 | 45 | 109 | 9.0 | 22.0 | 0.00 | 0.00 | 0.00 | 47 | 1014.4 |
| 20260505174551 | 44 | 100 | 13.0 | 22.0 | 0.00 | 0.00 | 0.00 | 47 | 1014.4 |
| 20260505174027 | 44 | 75 | 13.0 | 21.0 | 0.00 | 0.00 | 0.00 | 47 | 1014.3 |
| 20260505173529 | 44 | 109 | 10.0 | 20.0 | 0.00 | 0.00 | 0.00 | 50 | 1014.2 |
| 20260505173044 | 44 | 57 | 12.0 | 22.0 | 0.00 | 0.00 | 0.00 | 50 | 1014.3 |
| 20260505172526 | 44 | 104 | 11.0 | 22.0 | 0.00 | 0.00 | 0.00 | 48 | 1014.3 |
| 20260505172028 | 43 | 109 | 12.0 | 22.0 | 0.00 | 0.00 | 0.00 | 49 | 1014.3 |
| 20260505171538 | 43 | 74 | 14.0 | 23.0 | 0.00 | 0.00 | 0.00 | 49 | 1014.4 |
| 20260505171029 | 43 | 111 | 13.0 | 23.0 | 0.00 | 0.00 | 0.00 | 48 | 1014.5 |
| 20260505170526 | 43 | 68 | 13.0 | 23.0 | 0.00 | 0.00 | 0.00 | 48 | 1014.6 |
| 20260505170039 | 43 | 88 | 10.0 | 23.0 | 0.00 | 0.00 | 0.00 | 48 | 1014.6 |
| 20260505165528 | 43 | 84 | 13.0 | 20.0 | 0.00 | 0.00 | 0.00 | 49 | 1014.7 |
| 20260505165025 | 43 | 116 | 10.0 | 20.0 | 0.00 | 0.00 | 0.00 | 52 | 1014.6 |
| 20260505164543 | 43 | 110 | 12.0 | 21.0 | 0.00 | 0.00 | 0.00 | 51 | 1014.7 |
| 20260505164031 | 43 | 114 | 11.0 | 22.0 | 0.00 | 0.00 | 0.00 | 48 | 1014.7 |
| 20260505163529 | 42 | 83 | 12.0 | 24.0 | 0.00 | 0.00 | 0.00 | 50 | 1014.7 |
| 20260505163042 | 43 | 117 | 12.0 | 24.0 | 0.00 | 0.00 | 0.00 | 50 | 1014.9 |
| 20260505162526 | 42 | 96 | 14.0 | 23.0 | 0.00 | 0.00 | 0.00 | 49 | 1014.7 |
| 20260505162028 | 42 | 74 | 15.0 | 26.0 | 0.00 | 0.00 | 0.00 | 48 | 1014.7 |
| 20260505161539 | 42 | 88 | 10.0 | 26.0 | 0.00 | 0.00 | 0.00 | 49 | 1014.7 |
| 20260505161025 | 42 | 75 | 16.0 | 26.0 | 0.00 | 0.00 | 0.00 | 49 | 1014.9 |
| 20260505160527 | 41 | 109 | 15.0 | 24.0 | 0.00 | 0.00 | 0.00 | 49 | 1015.0 |
| 20260505153039 | 40 | 101 | 13.0 | 20.0 | 0.00 | 0.00 | 0.00 | 50 | 1014.9 |
| 20260505152525 | 40 | 77 | 9.0 | 20.0 | 0.00 | 0.00 | 0.00 | 50 | 1014.8 |
| 20260505152028 | 40 | 123 | 13.0 | 20.0 | 0.00 | 0.00 | 0.00 | 50 | 1014.9 |
| 20260505151541 | 40 | 86 | 10.0 | 21.0 | 0.00 | 0.00 | 0.00 | 53 | 1015.0 |
| 20260505151028 | 39 | 103 | 11.0 | 21.0 | 0.00 | 0.00 | 0.00 | 56 | 1015.0 |
| 20260505150528 | 39 | 87 | 10.0 | 20.0 | 0.00 | 0.00 | 0.00 | 54 | 1015.1 |
| 20260505140528 | 38 | 72 | 6.0 | 13.0 | 0.00 | 0.00 | 0.00 | 65 | 1015.1 |
| 20260505125027 | 32 | 66 | 4.0 | 12.0 | 0.00 | 0.00 | 0.00 | 77 | 1014.6 |
| 20260505124545 | 32 | 104 | 4.0 | 12.0 | 0.00 | 0.00 | 0.00 | 77 | 1014.5 |
| 20260505124026 | 32 | 55 | 5.0 | 10.0 | 0.00 | 0.00 | 0.00 | 77 | 1014.4 |
| 20260505123525 | 32 | 51 | 6.0 | 10.0 | 0.00 | 0.00 | 0.00 | 77 | 1014.5 |
| 20260505123059 | 32 | 37 | 5.0 | 12.0 | 0.00 | 0.00 | 0.00 | 78 | 1014.6 |
| 20260505122525 | 32 | 88 | 7.0 | 13.0 | 0.00 | 0.00 | 0.00 | 78 | 1014.5 |
| 20260505122025 | 31 | 42 | 7.0 | 13.0 | 0.00 | 0.00 | 0.00 | 78 | 1014.5 |
| 20260505121539 | 31 | 69 | 7.0 | 13.0 | 0.00 | 0.00 | 0.00 | 79 | 1014.4 |
| 20260505121029 | 31 | 55 | 5.0 | 13.0 | 0.00 | 0.00 | 0.00 | 79 | 1014.4 |
| 20260505120525 | 31 | 43 | 7.0 | 13.0 | 0.00 | 0.00 | 0.00 | 79 | 1014.4 |
| 20260505120039 | 30 | 34 | 4.0 | 10.0 | 0.00 | 0.00 | 0.00 | 79 | 1014.4 |
| 20260505115525 | 30 | 46 | 5.0 | 10.0 | 0.00 | 0.00 | 0.00 | 78 | 1014.4 |
| 20260505115025 | 31 | 59 | 4.0 | 10.0 | 0.00 | 0.00 | 0.00 | 78 | 1014.3 |
| 20260505114546 | 31 | 55 | 6.0 | 11.0 | 0.00 | 0.00 | 0.00 | 78 | 1014.3 |
| 20260505114028 | 30 | 62 | 7.0 | 12.0 | 0.00 | 0.00 | 0.00 | 78 | 1014.3 |
| 20260505113526 | 30 | 45 | 7.0 | 12.0 | 0.00 | 0.00 | 0.00 | 78 | 1014.2 |
| 20260505113049 | 30 | 41 | 6.0 | 10.0 | 0.00 | 0.00 | 0.00 | 78 | 1014.3 |
| 20260505112525 | 30 | 63 | 6.0 | 10.0 | 0.00 | 0.00 | 0.00 | 79 | 1014.2 |
| 20260505112028 | 30 | 53 | 6.0 | 11.0 | 0.00 | 0.00 | 0.00 | 78 | 1014.4 |
| 20260505111540 | 30 | 86 | 6.0 | 11.0 | 0.00 | 0.00 | 0.00 | 78 | 1014.4 |
| 20260505111028 | 30 | 53 | 6.0 | 10.0 | 0.00 | 0.00 | 0.00 | 78 | 1014.4 |
| 20260505110530 | 30 | 63 | 4.0 | 9.0 | 0.00 | 0.00 | 0.00 | 79 | 1014.4 |
| 20260505102026 | 31 | 57 | 3.0 | 8.0 | 0.00 | 0.00 | 0.00 | 76 | 1014.6 |
| 20260505101558 | 32 | 57 | 3.0 | 8.0 | 0.00 | 0.00 | 0.00 | 76 | 1014.5 |
| 20260505101025 | 32 | 50 | 4.0 | 8.0 | 0.00 | 0.00 | 0.00 | 75 | 1014.4 |
| 20260505100528 | 32 | 53 | 3.0 | 7.0 | 0.00 | 0.00 | 0.00 | 74 | 1014.4 |
| 20260505100058 | 33 | 123 | 1.0 | 7.0 | 0.00 | 0.00 | 0.00 | 73 | 1014.0 |
| 20260505095531 | 33 | 135 | 4.0 | 7.0 | 0.00 | 0.00 | 0.00 | 73 | 1014.0 |
| 20260505095027 | 34 | 104 | 3.0 | 8.0 | 0.00 | 0.00 | 0.00 | 72 | 1013.8 |
| 20260505094539 | 34 | 103 | 3.0 | 8.0 | 0.00 | 0.00 | 0.00 | 72 | 1013.8 |
| 20260505094026 | 34 | 96 | 4.0 | 8.0 | 0.00 | 0.00 | 0.00 | 71 | 1013.7 |
| 20260505093527 | 35 | 103 | 4.0 | 11.0 | 0.00 | 0.00 | 0.00 | 71 | 1013.7 |
| 20260505093059 | 35 | 90 | 4.0 | 11.0 | 0.00 | 0.00 | 0.00 | 70 | 1013.7 |
| 20260505092527 | 36 | 140 | 5.0 | 11.0 | 0.00 | 0.00 | 0.00 | 69 | 1013.7 |
| 20260505092027 | 36 | 125 | 4.0 | 8.0 | 0.00 | 0.00 | 0.00 | 69 | 1013.5 |
| 20260505091544 | 36 | 145 | 3.0 | 7.0 | 0.00 | 0.00 | 0.00 | 69 | 1013.5 |
| 20260505091027 | 36 | 104 | 3.0 | 7.0 | 0.00 | 0.00 | 0.00 | 71 | 1013.5 |
| 20260505090526 | 37 | 86 | 3.0 | 9.0 | 0.00 | 0.00 | 0.00 | 70 | 1013.4 |
| 20260505090037 | 37 | 92 | 4.0 | 9.0 | 0.00 | 0.00 | 0.00 | 69 | 1013.4 |
| 20260505085526 | 37 | 105 | 3.0 | 7.0 | 0.00 | 0.00 | 0.00 | 68 | 1013.3 |
| 20260505085026 | 37 | 98 | 3.0 | 7.0 | 0.00 | 0.00 | 0.00 | 66 | 1013.3 |
| 20260505084541 | 38 | 108 | 3.0 | 8.0 | 0.00 | 0.00 | 0.00 | 65 | 1013.3 |
| 20260505084028 | 38 | 100 | 4.0 | 8.0 | 0.00 | 0.00 | 0.00 | 63 | 1013.3 |
| 20260505083528 | 39 | 98 | 3.0 | 10.0 | 0.00 | 0.00 | 0.00 | 62 | 1013.3 |
| 20260505083040 | 39 | 83 | 5.0 | 10.0 | 0.00 | 0.00 | 0.00 | 62 | 1013.2 |
| 20260505082525 | 39 | 61 | 6.0 | 10.0 | 0.00 | 0.00 | 0.00 | 62 | 1013.2 |
| 20260505082025 | 39 | 60 | 4.0 | 9.0 | 0.00 | 0.00 | 0.00 | 64 | 1013.2 |
| 20260505081541 | 38 | 62 | 3.0 | 7.0 | 0.00 | 0.00 | 0.00 | 66 | 1013.2 |
| 20260505081028 | 38 | 73 | 2.0 | 6.0 | 0.00 | 0.00 | 0.00 | 68 | 1013.4 |
| 20260505080526 | 39 | 55 | 3.0 | 8.0 | 0.00 | 0.00 | 0.00 | 68 | 1013.3 |
| 20260505080048 | 39 | 36 | 3.0 | 8.0 | 0.00 | 0.00 | 0.00 | 66 | 1013.3 |
| 20260505075526 | 40 | 45 | 4.0 | 11.0 | 0.00 | 0.00 | 0.00 | 65 | 1013.4 |
| 20260505075026 | 40 | 51 | 4.0 | 11.0 | 0.00 | 0.00 | 0.00 | 65 | 1013.3 |
| 20260505074547 | 40 | 54 | 6.0 | 10.0 | 0.00 | 0.00 | 0.00 | 64 | 1013.3 |
| 20260505074026 | 40 | 50 | 4.0 | 8.0 | 0.00 | 0.00 | 0.00 | 67 | 1013.3 |
| 20260505073526 | 40 | 45 | 3.0 | 8.0 | 0.00 | 0.00 | 0.00 | 67 | 1013.3 |
| 20260505073048 | 40 | 57 | 4.0 | 8.0 | 0.00 | 0.00 | 0.00 | 68 | 1013.4 |
| 20260505072525 | 40 | 51 | 3.0 | 6.0 | 0.00 | 0.00 | 0.00 | 70 | 1013.5 |
| 20260505072026 | 40 | 76 | 2.0 | 5.0 | 0.00 | 0.00 | 0.00 | 70 | 1013.5 |
| 20260505071551 | 40 | 69 | 0.0 | 3.0 | 0.00 | 0.00 | 0.00 | 71 | 1013.5 |
| 20260505071028 | 40 | 0 | 0.0 | 3.0 | 0.00 | 0.00 | 0.00 | 72 | 1013.7 |
| 20260505070526 | 40 | 0 | 0.0 | 2.0 | 0.00 | 0.00 | 0.00 | 72 | 1013.7 |
| 20260505070042 | 40 | 61 | 1.0 | 2.0 | 0.00 | 0.00 | 0.00 | 72 | 1013.8 |
| 20260505065526 | 40 | 61 | 1.0 | 4.0 | 0.00 | 0.00 | 0.00 | 72 | 1013.8 |
| 20260505065024 | 40 | 61 | 1.0 | 4.0 | 0.00 | 0.00 | 0.00 | 71 | 1013.7 |
| 20260505064538 | 40 | 61 | 2.0 | 5.0 | 0.00 | 0.00 | 0.00 | 71 | 1013.7 |
| 20260505064027 | 40 | 61 | 1.0 | 5.0 | 0.00 | 0.00 | 0.00 | 71 | 1013.7 |
| 20260505063530 | 40 | 61 | 3.0 | 6.0 | 0.00 | 0.00 | 0.00 | 71 | 1013.7 |
| 20260505063046 | 41 | 95 | 2.0 | 8.0 | 0.00 | 0.00 | 0.00 | 70 | 1013.8 |
| 20260505062528 | 41 | 84 | 2.0 | 11.0 | 0.00 | 0.00 | 0.00 | 70 | 1013.8 |
| 20260505062027 | 41 | 106 | 5.0 | 12.0 | 0.00 | 0.00 | 0.00 | 69 | 1013.8 |
| 20260505061546 | 41 | 97 | 6.0 | 14.0 | 0.00 | 0.00 | 0.00 | 68 | 1013.8 |
| 20260505061113 | 42 | 127 | 8.0 | 15.0 | 0.00 | 0.00 | 0.00 | 67 | 1013.8 |
| 20260505060528 | 42 | 90 | 9.0 | 15.0 | 0.00 | 0.00 | 0.00 | 66 | 1013.8 |
| 20260505060043 | 42 | 90 | 8.0 | 14.0 | 0.00 | 0.00 | 0.00 | 65 | 1013.7 |
| 20260505055528 | 42 | 94 | 4.0 | 10.0 | 0.00 | 0.00 | 0.00 | 66 | 1013.5 |
| 20260505055028 | 43 | 89 | 3.0 | 10.0 | 0.00 | 0.00 | 0.00 | 65 | 1013.5 |
| 20260505054547 | 43 | 94 | 5.0 | 12.0 | 0.00 | 0.00 | 0.00 | 63 | 1013.4 |
| 20260505054027 | 43 | 94 | 7.0 | 12.0 | 0.00 | 0.00 | 0.00 | 63 | 1013.3 |
| 20260505053528 | 43 | 103 | 5.0 | 11.0 | 0.00 | 0.00 | 0.00 | 63 | 1013.3 |
| 20260505053044 | 43 | 111 | 6.0 | 11.0 | 0.00 | 0.00 | 0.00 | 63 | 1013.3 |
| 20260505052530 | 44 | 113 | 5.0 | 13.0 | 0.00 | 0.00 | 0.00 | 62 | 1013.1 |
| 20260505052030 | 44 | 113 | 6.0 | 14.0 | 0.00 | 0.00 | 0.00 | 62 | 1013.0 |
| 20260505051541 | 44 | 88 | 9.0 | 15.0 | 0.00 | 0.00 | 0.00 | 62 | 1013.0 |
| 20260505051027 | 44 | 78 | 9.0 | 15.0 | 0.00 | 0.00 | 0.00 | 62 | 1013.0 |
| 20260505050527 | 44 | 92 | 5.0 | 10.0 | 0.00 | 0.00 | 0.00 | 62 | 1012.7 |
| 20260505041538 | 43 | 94 | 2.0 | 4.0 | 0.00 | 0.00 | 0.00 | 65 | 1012.5 |
| 20260505041028 | 44 | 94 | 2.0 | 4.0 | 0.00 | 0.00 | 0.00 | 64 | 1012.5 |
| 20260505040528 | 44 | 94 | 1.0 | 4.0 | 0.00 | 0.00 | 0.00 | 63 | 1012.5 |
| 20260505040042 | 44 | 93 | 2.0 | 5.0 | 0.00 | 0.00 | 0.00 | 63 | 1012.4 |
| 20260505035527 | 44 | 97 | 2.0 | 8.0 | 0.00 | 0.00 | 0.00 | 62 | 1012.3 |
| 20260505035028 | 44 | 84 | 2.0 | 8.0 | 0.00 | 0.00 | 0.00 | 62 | 1012.3 |
| 20260505034548 | 44 | 94 | 4.0 | 8.0 | 0.00 | 0.00 | 0.00 | 62 | 1012.2 |
| 20260505034025 | 44 | 109 | 3.0 | 8.0 | 0.00 | 0.00 | 0.00 | 62 | 1012.1 |
| 20260505033528 | 44 | 90 | 4.0 | 8.0 | 0.00 | 0.00 | 0.00 | 62 | 1012.1 |
| 20260505033043 | 43 | 92 | 2.0 | 8.0 | 0.00 | 0.00 | 0.00 | 63 | 1012.1 |
| 20260505032527 | 43 | 83 | 3.0 | 8.0 | 0.00 | 0.00 | 0.00 | 63 | 1012.0 |
| 20260505032028 | 43 | 85 | 3.0 | 8.0 | 0.00 | 0.00 | 0.00 | 63 | 1012.0 |
| 20260505031544 | 42 | 79 | 2.0 | 4.0 | 0.00 | 0.00 | 0.00 | 64 | 1012.0 |
| 20260505031029 | 42 | 78 | 2.0 | 4.0 | 0.00 | 0.00 | 0.00 | 65 | 1012.0 |
| 20260505030528 | 42 | 77 | 2.0 | 4.0 | 0.00 | 0.00 | 0.00 | 64 | 1012.0 |
| 20260505030041 | 42 | 77 | 2.0 | 4.0 | 0.00 | 0.00 | 0.00 | 64 | 1011.9 |
| 20260505025526 | 42 | 77 | 1.0 | 3.0 | 0.00 | 0.00 | 0.00 | 64 | 1011.8 |
| 20260505025027 | 42 | 77 | 1.0 | 3.0 | 0.00 | 0.00 | 0.00 | 64 | 1011.8 |
| 20260505024538 | 42 | 77 | 1.0 | 3.0 | 0.00 | 0.00 | 0.00 | 64 | 1011.8 |
| 20260505024027 | 43 | 77 | 1.0 | 3.0 | 0.00 | 0.00 | 0.00 | 62 | 1011.7 |
| 20260505023528 | 43 | 77 | 1.0 | 3.0 | 0.00 | 0.00 | 0.00 | 62 | 1011.7 |
| 20260505023038 | 43 | 77 | 1.0 | 3.0 | 0.00 | 0.00 | 0.00 | 62 | 1011.6 |
| 20260505022528 | 43 | 77 | 1.0 | 4.0 | 0.00 | 0.00 | 0.00 | 62 | 1011.7 |
| 20260505022027 | 43 | 0 | 0.0 | 4.0 | 0.00 | 0.00 | 0.00 | 61 | 1011.6 |
| 20260505021545 | 43 | 98 | 1.0 | 4.0 | 0.00 | 0.00 | 0.00 | 61 | 1011.5 |
| 20260505021028 | 44 | 98 | 2.0 | 7.0 | 0.00 | 0.00 | 0.00 | 60 | 1011.6 |
| 20260505020529 | 44 | 92 | 2.0 | 7.0 | 0.00 | 0.00 | 0.00 | 59 | 1011.5 |
| 20260505020046 | 45 | 97 | 3.0 | 8.0 | 0.00 | 0.00 | 0.00 | 58 | 1011.4 |
| 20260505015529 | 45 | 96 | 3.0 | 8.0 | 0.00 | 0.00 | 0.00 | 57 | 1011.4 |
| 20260505015028 | 46 | 87 | 3.0 | 9.0 | 0.00 | 0.00 | 0.00 | 56 | 1011.4 |
| 20260505014540 | 46 | 94 | 4.0 | 9.0 | 0.00 | 0.00 | 0.00 | 56 | 1011.4 |
| 20260505014027 | 46 | 97 | 4.0 | 9.0 | 0.00 | 0.00 | 0.00 | 56 | 1011.4 |
| 20260505013527 | 46 | 98 | 4.0 | 9.0 | 0.00 | 0.00 | 0.00 | 56 | 1011.5 |
| 20260505013038 | 46 | 61 | 3.0 | 11.0 | 0.00 | 0.00 | 0.00 | 55 | 1011.4 |
| 20260505012528 | 47 | 105 | 3.0 | 11.0 | 0.00 | 0.00 | 0.00 | 56 | 1011.4 |
| 20260505012028 | 47 | 84 | 6.0 | 11.0 | 0.00 | 0.00 | 0.00 | 55 | 1011.5 |
| 20260505011541 | 47 | 93 | 5.0 | 10.0 | 0.00 | 0.00 | 0.00 | 55 | 1011.5 |
| 20260505011027 | 47 | 103 | 4.0 | 13.0 | 0.00 | 0.00 | 0.00 | 54 | 1011.6 |
| 20260505010528 | 48 | 88 | 6.0 | 14.0 | 0.00 | 0.00 | 0.00 | 53 | 1011.5 |
| 20260505005525 | 49 | 96 | 9.0 | 15.0 | 0.00 | 0.00 | 0.00 | 52 | 1011.5 |
| 20260505005026 | 49 | 66 | 7.0 | 14.0 | 0.00 | 0.00 | 0.00 | 52 | 1011.5 |
| 20260505004541 | 50 | 83 | 6.0 | 13.0 | 0.00 | 0.00 | 0.00 | 52 | 1011.5 |
| 20260505004026 | 50 | 105 | 5.0 | 15.0 | 0.00 | 0.00 | 0.00 | 53 | 1011.5 |
| 20260505003527 | 50 | 92 | 6.0 | 17.0 | 0.00 | 0.00 | 0.00 | 52 | 1011.5 |
| 20260505003043 | 50 | 82 | 8.0 | 18.0 | 0.00 | 0.00 | 0.00 | 53 | 1011.4 |
| 20260505002528 | 49 | 53 | 9.0 | 18.0 | 0.00 | 0.00 | 0.00 | 52 | 1011.4 |
| 20260505002028 | 49 | 83 | 10.0 | 18.0 | 0.00 | 0.00 | 0.00 | 53 | 1011.5 |
| 20260505001539 | 49 | 129 | 8.0 | 15.0 | 0.00 | 0.00 | 0.00 | 54 | 1011.4 |
| 20260505001028 | 49 | 134 | 7.0 | 15.0 | 0.00 | 0.00 | 0.00 | 54 | 1011.5 |
| 20260505000527 | 49 | 83 | 8.0 | 17.0 | 0.00 | 0.00 | 0.00 | 54 | 1011.5 |
| 20260505000044 | 49 | 95 | 9.0 | 17.0 | 0.00 | 0.00 | 0.00 | 53 | 1011.5 |
| 20260504235526 | 49 | 47 | 9.0 | 15.0 | 0.00 | 0.00 | 0.00 | 53 | 1011.4 |
| 20260504235028 | 49 | 76 | 8.0 | 15.0 | 0.00 | 0.00 | 0.00 | 54 | 1011.4 |
| 20260504234537 | 50 | 107 | 8.0 | 19.0 | 0.00 | 0.00 | 0.00 | 53 | 1011.3 |
| 20260504234028 | 51 | 92 | 9.0 | 19.0 | 0.00 | 0.00 | 0.00 | 52 | 1011.4 |
| 20260504233528 | 51 | 86 | 11.0 | 18.0 | 0.00 | 0.00 | 0.00 | 53 | 1011.3 |
| 20260504233043 | 51 | 98 | 8.0 | 18.0 | 0.00 | 0.00 | 0.00 | 54 | 1011.3 |
| 20260504232527 | 50 | 97 | 9.0 | 19.0 | 0.00 | 0.00 | 0.00 | 54 | 1011.2 |
| 20260504232027 | 51 | 87 | 8.0 | 19.0 | 0.00 | 0.00 | 0.00 | 52 | 1011.1 |
| 20260504231545 | 51 | 47 | 10.0 | 18.0 | 0.00 | 0.00 | 0.00 | 55 | 1011.1 |
| 20260504231027 | 50 | 74 | 10.0 | 18.0 | 0.00 | 0.00 | 0.00 | 52 | 1011.0 |